• Em Portugal
  • Lista de países
  • Para 7 dias
  • Temperatura da água
  • Mapas de satélite
  • Mapa do tempo
  • Widgets de tempo
  • user-avatar
    Iniciar Sessão

    Previsão horária em Berat

    Hoje, 20 Agosto, Segunda-feira

    Tempo Temperatura Precipitação Vento Pressão Humidade
    00:00 +25°C° 0 mm 3 m/s 743 mmHg 48%
    01:00 +24°C° 0 mm 3 m/s 743 mmHg 48%
    02:00 +24°C° 0 mm 3 m/s 743 mmHg 48%
    03:00 +24°C° 0 mm 3 m/s 743 mmHg 49%
    04:00 +22°C° 0 mm 3 m/s 743 mmHg 49%
    05:00 +25°C° 0 mm 2 m/s 743 mmHg 49%
    06:00 +26°C° 0 mm 2 m/s 743 mmHg 49%
    07:00 +27°C° 0 mm 2 m/s 743 mmHg 48%
    08:00 +29°C° 0 mm 2 m/s 743 mmHg 44%
    09:00 +31°C° 0 mm 2 m/s 743 mmHg 40%
    10:00 +32°C° 0 mm 2 m/s 743 mmHg 36%
    11:00 +34°C° 0 mm 2 m/s 743 mmHg 34%
    12:00 +34°C° 0 mm 2 m/s 743 mmHg 33%
    13:00 +35°C° 0 mm 2 m/s 743 mmHg 32%
    14:00 +34°C° 0 mm 2 m/s 743 mmHg 36%
    15:00 +32°C° 0 mm 2 m/s 743 mmHg 40%
    16:00 +31°C° 0 mm 2 m/s 742 mmHg 43%
    17:00 +29°C° 0,2 mm 2 m/s 742 mmHg 48%
    18:00 +28°C° 0,2 mm 1 m/s 742 mmHg 52%
    19:00 +27°C° 0,2 mm 1 m/s 742 mmHg 56%
    20:00 +26°C° 0,2 mm 1 m/s 743 mmHg 58%
    21:00 +25°C° 0,2 mm 1 m/s 743 mmHg 60%
    22:00 +24°C° 0,2 mm 2 m/s 743 mmHg 61%
    23:00 +24°C° 0 mm 2 m/s 743 mmHg 62%

    Amanhã, 21 Agosto, Terça-feira

    Tempo Temperatura Precipitação Vento Pressão Humidade
    00:00 +24°C° 0 mm 2 m/s 743 mmHg 62%
    01:00 +24°C° 0 mm 2 m/s 743 mmHg 62%
    02:00 +23°C° 0 mm 2 m/s 743 mmHg 62%
    03:00 +23°C° 0 mm 2 m/s 743 mmHg 62%
    04:00 +23°C° 0 mm 2 m/s 743 mmHg 62%
    05:00 +24°C° 0 mm 2 m/s 743 mmHg 60%
    06:00 +26°C° 0 mm 2 m/s 743 mmHg 57%
    07:00 +27°C° 0 mm 2 m/s 744 mmHg 55%
    08:00 +29°C° 0 mm 2 m/s 744 mmHg 49%
    09:00 +31°C° 0 mm 1 m/s 744 mmHg 43%
    10:00 +32°C° 0 mm 1 m/s 744 mmHg 37%
    11:00 +34°C° 0 mm 2 m/s 744 mmHg 37%
    12:00 +34°C° 0 mm 2 m/s 743 mmHg 37%
    13:00 +34°C° 0 mm 2 m/s 743 mmHg 36%
    14:00 +32°C° 0 mm 2 m/s 743 mmHg 40%
    15:00 +31°C° 0 mm 2 m/s 743 mmHg 43%
    16:00 +30°C° 0 mm 2 m/s 743 mmHg 47%
    17:00 +29°C° 0,1 mm 1 m/s 743 mmHg 51%
    18:00 +28°C° 0,1 mm 1 m/s 743 mmHg 55%
    19:00 +27°C° 0,1 mm 1 m/s 743 mmHg 59%
    20:00 +26°C° 0 mm 1 m/s 744 mmHg 61%
    21:00 +25°C° 0 mm 1 m/s 744 mmHg 63%
    22:00 +25°C° 0 mm 1 m/s 744 mmHg 64%
    23:00 +24°C° 0 mm 1 m/s 744 mmHg 63%

    Depois de amanhã, 22 Agosto, Quarta-feira

    Tempo Temperatura Precipitação Vento Pressão Humidade
    00:00 +24°C° 0 mm 1 m/s 744 mmHg 62%
    01:00 +24°C° 0 mm 2 m/s 744 mmHg 61%
    02:00 +24°C° 0 mm 2 m/s 744 mmHg 61%
    03:00 +24°C° 0 mm 2 m/s 744 mmHg 61%
    04:00 +23°C° 0 mm 2 m/s 744 mmHg 61%
    05:00 +25°C° 0 mm 2 m/s 744 mmHg 58%
    06:00 +26°C° 0 mm 2 m/s 744 mmHg 56%
    07:00 +27°C° 0 mm 2 m/s 744 mmHg 53%
    08:00 +29°C° 0 mm 2 m/s 744 mmHg 47%
    09:00 +31°C° 0 mm 2 m/s 745 mmHg 41%
    10:00 +33°C° 0 mm 1 m/s 745 mmHg 34%
    11:00 +34°C° 0 mm 2 m/s 744 mmHg 33%
    12:00 +35°C° 0 mm 2 m/s 744 mmHg 32%
    13:00 +35°C° 0 mm 2 m/s 744 mmHg 31%
    14:00 +34°C° 0 mm 2 m/s 744 mmHg 34%
    15:00 +34°C° 0 mm 2 m/s 744 mmHg 37%
    16:00 +32°C° 0 mm 2 m/s 743 mmHg 41%
    17:00 +30°C° 0 mm 2 m/s 744 mmHg 45%
    18:00 +29°C° 0 mm 2 m/s 744 mmHg 50%
    19:00 +27°C° 0 mm 1 m/s 744 mmHg 54%
    20:00 +26°C° 0 mm 1 m/s 744 mmHg 55%
    21:00 +26°C° 0 mm 1 m/s 744 mmHg 55%
    22:00 +25°C° 0 mm 1 m/s 744 mmHg 55%
    23:00 +25°C° 0 mm 1 m/s 744 mmHg 52%

    23 Agosto, Quinta-feira

    Tempo Temperatura Precipitação Vento Pressão Humidade
    00:00 +25°C° 0 mm 1 m/s 744 mmHg 50%
    01:00 +25°C° 0 mm 1 m/s 744 mmHg 47%
    02:00 +24°C° 0 mm 2 m/s 744 mmHg 46%
    03:00 +24°C° 0 mm 2 m/s 744 mmHg 45%
    04:00 +24°C° 0 mm 2 m/s 743 mmHg 44%
    05:00 +25°C° 0 mm 2 m/s 743 mmHg 43%
    06:00 +26°C° 0 mm 2 m/s 744 mmHg 43%
    07:00 +27°C° 0 mm 2 m/s 744 mmHg 43%
    08:00 +29°C° 0 mm 1 m/s 744 mmHg 38%
    09:00 +31°C° 0 mm 1 m/s 744 mmHg 34%
    10:00 +33°C° 0 mm 1 m/s 744 mmHg 30%
    11:00 +34°C° 0 mm 1 m/s 743 mmHg 30%
    12:00 +35°C° 0 mm 2 m/s 743 mmHg 30%
    13:00 +35°C° 0 mm 2 m/s 743 mmHg 29%
    14:00 +34°C° 0 mm 2 m/s 743 mmHg 33%
    15:00 +32°C° 0 mm 2 m/s 742 mmHg 37%
    16:00 +31°C° 0 mm 2 m/s 742 mmHg 41%
    17:00 +30°C° 0 mm 2 m/s 742 mmHg 45%
    18:00 +29°C° 0 mm 1 m/s 742 mmHg 49%
    19:00 +27°C° 0 mm 1 m/s 742 mmHg 53%
    20:00 +27°C° 0 mm 1 m/s 743 mmHg 55%
    21:00 +26°C° 0 mm 1 m/s 743 mmHg 56%
    22:00 +26°C° 0 mm 1 m/s 743 mmHg 57%
    23:00 +26°C° 0 mm 1 m/s 743 mmHg 57%

    24 Agosto, Sexta-feira

    Tempo Temperatura Precipitação Vento Pressão Humidade
    00:00 +25°C° 0 mm 1 m/s 743 mmHg 58%
    01:00 +25°C° 0 mm 1 m/s 743 mmHg 58%
    02:00 +25°C° 0 mm 1 m/s 742 mmHg 58%
    03:00 +25°C° 0 mm 1 m/s 742 mmHg 57%
    04:00 +24°C° 0 mm 1 m/s 742 mmHg 57%
    05:00 +26°C° 0 mm 1 m/s 742 mmHg 55%
    06:00 +27°C° 0 mm 1 m/s 742 mmHg 53%
    07:00 +28°C° 0 mm 1 m/s 742 mmHg 50%
    08:00 +29°C° 0 mm 1 m/s 742 mmHg 45%
    09:00 +31°C° 0 mm 1 m/s 742 mmHg 40%
    10:00 +33°C° 0 mm 1 m/s 742 mmHg 35%
    11:00 +34°C° 0 mm 2 m/s 742 mmHg 36%
    12:00 +34°C° 0 mm 3 m/s 742 mmHg 36%
    13:00 +34°C° 0 mm 3 m/s 742 mmHg 37%
    14:00 +33°C° 0,1 mm 3 m/s 741 mmHg 41%
    15:00 +31°C° 0,1 mm 3 m/s 741 mmHg 44%
    16:00 +30°C° 0,1 mm 3 m/s 741 mmHg 48%
    17:00 +29°C° 0,3 mm 2 m/s 741 mmHg 54%
    18:00 +27°C° 0,3 mm 2 m/s 741 mmHg 61%
    19:00 +26°C° 0,3 mm 1 m/s 742 mmHg 67%
    20:00 +25°C° 0,1 mm 1 m/s 742 mmHg 68%
    21:00 +24°C° 0,1 mm 1 m/s 742 mmHg 70%
    22:00 +24°C° 0,1 mm 1 m/s 742 mmHg 71%
    23:00 +24°C° 0 mm 1 m/s 742 mmHg 71%

    25 Agosto, Sábado

    Tempo Temperatura Precipitação Vento Pressão Humidade
    00:00 +23°C° 0 mm 1 m/s 742 mmHg 71%
    01:00 +23°C° 0 mm 1 m/s 741 mmHg 71%
    02:00 +23°C° 0 mm 1 m/s 741 mmHg 71%
    03:00 +23°C° 0 mm 1 m/s 741 mmHg 71%
    04:00 +22°C° 0 mm 1 m/s 741 mmHg 71%
    05:00 +24°C° 0 mm 1 m/s 741 mmHg 66%
    06:00 +25°C° 0 mm 1 m/s 741 mmHg 62%
    07:00 +26°C° 0 mm 1 m/s 741 mmHg 58%
    08:00 +28°C° 0 mm 1 m/s 741 mmHg 51%
    09:00 +30°C° 0 mm 2 m/s 742 mmHg 45%
    10:00 +31°C° 0 mm 2 m/s 742 mmHg 39%
    11:00 +32°C° 0 mm 2 m/s 741 mmHg 38%
    12:00 +33°C° 0 mm 3 m/s 741 mmHg 36%
    13:00 +34°C° 0 mm 4 m/s 741 mmHg 35%
    14:00 +34°C° 0 mm 4 m/s 741 mmHg 38%
    15:00 +33°C° 0 mm 4 m/s 740 mmHg 41%
    16:00 +32°C° 0 mm 4 m/s 740 mmHg 44%
    17:00 +30°C° 0 mm 3 m/s 740 mmHg 51%
    18:00 +28°C° 0 mm 2 m/s 741 mmHg 58%
    19:00 +26°C° 0 mm 1 m/s 741 mmHg 65%
    20:00 +25°C° 0 mm 1 m/s 741 mmHg 67%
    21:00 +24°C° 0 mm 1 m/s 741 mmHg 70%
    22:00 +24°C° 0 mm 1 m/s 741 mmHg 72%
    23:00 +24°C° 0 mm 1 m/s 741 mmHg 73%
    Mostrar mais